OBJECT B, 66176

Orbit data source: Space-Track

You're viewing an Uncataloged Satellite

Recently launched and/or uncataloged satellites may have evolving metadata. Metadata may include but not limited to: Owner, Maufacturer, Bus, Motor, and Mission.

OBJECT B, 66176 is a satellite owned by CASC (CN) in SSO that was launched on Sun, 26 Oct 2025 UTC launched from the Xichang Space Center, China (XSC). Unknown objects in Earth's orbit typically refer to objects detected orbiting the Earth but have not yet been identified or cataloged. These objects could be anything from previously untracked satellites, spent rocket stages, debris from satellite collisions, or even natural meteoroids temporarily captured by Earth's gravity.

Loading next visibility...
Identifier
66176, 2025-242B
Orbit
SSO
Country
Flag of CNCN / PRC
Related business
Manufacturer
CALT
Mission
Spacecraft
Bus & Motor
CZ-3A STAGE 3, Unknown motor
Mass
~2,800 kg wet, ~2,800 kg dry
Launch date (UTC)
2025-10-26 (2 weeks ago)
Launch vehicle
Unknown
Launch site
Xichang Space Center, China (XSC)
Object type
Unknown
Shape & HBR
Unknown shape, 1.1 m
Radar Cross Section
RCS unknown

Expand to show TLE details & history
Last TLE update: 3 days ago

TLE from 3 days ago
0 OBJECT B
1 66176U 25242B   25309.65934494  .00029904  00000-0  58815-3 0  9998
2 66176  97.4571  21.8726 0103779   5.1082 355.1197 15.41457457  1623
Epoch: 2025-11-05T15:49Z
TLE epoch observation values (Epoch: 2025-11-05T15:49:27.402Z)
Latitude
-0.00006°
Longitude
99.37959°
Altitude
374.395 km
Speed
7.725 km/s
True Right ascension
01h 27m 29s
True Declination
0° 00' 00"
Sunlit
Object was in full shadow at epoch
Visualization orbit readout
Latitude
Unknown
Longitude
Unknown
Altitude
Unknown
Speed
Unknown
Apparent Right ascension
Unknown
Apparent Declination
Unknown
Sunlit
N/A
Visualization observer readout
Local Sidereal Time
06:55:17
Azimuth
Unknown
Elevation
Unknown
Doppler factor
Unknown
Orbital elements
Apogee altitude
509.491 km
Perigee altitude
368.001 km
Semi-major axis
6,816.883 km
Eccentricity
0.01038
Inclination
97.4571°
RAAN
21.8726°
Arg. of periapsis
5.1082°
True anomaly
355.0172°
Mean anomaly
355.1197°
Eccentric anomaly
355.06859°
Mean motion
3.85624 °/min
Orbital period
93.36 mins
BSTAR
0.00058815
Loading maneuver chart data...
Computing Atmospheric mass density...
Loading historical data...
Loading historical data...
Loading historical data...
Loading historical data...
Loading historical data...
Loading historical data...
Loading historical data...
Other satellites on launch #242 in the year 2025 (2025-10-26 UTC)

Documentation

Showing up to 5 results
|